Location: Roland
(31.1349°N, 85.4372°W)
Time: 05:04:21
(UTC+00:00)

Courier 1B - Pass Details

Date: 20 April 2021
Orbit: 962 x 1209 km, 28.3° (Epoch: 07 May)

Event Time Altitude Azimuth Distance (km) Brightness Sun altitude
Rises 15:04:49 0° 201° (SSW) 3,858 10.6 49.2°
Reaches altitude 10° 15:09:31 10° 174° (S) 2,842 10.3 50.1°
Maximum altitude 15:12:15 13° 150° (SSE) 2,621 10.4 50.7°
Drops below altitude 10° 15:14:57 10° 126° (SE) 2,779 10.7 51.2°
Sets 15:19:24 0° 99° (E) 3,686 11.1 52.1°
